Location: El Águila
(10.4167°N, 66.7167°W)
Time: 06:02:58
(UTC+00:00)

Cosmos 1674 - Pass Details

Date: 02 October 2022
Orbit: 483 x 505 km, 82.5° (Epoch: 26 November)

Event Time Altitude Azimuth Distance (km) Brightness Sun altitude
Rises 22:53:33 0° 351° (N) 2,564 6.3 -9.9°
Maximum altitude 22:59:19 66° 266° (W) 535 3.0 -11.3°
Drops below altitude 10° 23:02:56 10° 184° (S) 1,667 5.3 -12.2°
Sets 23:05:02 0° 181° (S) 2,543 6.3 -12.7°
